DW6016 Weather Reports


time (UTC)temp
F
wind
direction
speed
knots
gust
knots
rain 1hr
in
rain 24hr
in
rain mn
in
humidity
%
barometer
mb
20260902235243 59 318 0.0 0.0 0.00 0.33 0.33 99 1008.2
20260902234742 59 316 0.0 0.9 0.00 0.33 0.33 99 1008.2
20260902234242 59 301 0.0 0.0 0.00 0.33 0.33 99 1008.2
20260902233742 59 308 0.9 0.9 0.00 0.33 0.33 99 1008.3
20260902233236 59 315 0.0 0.0 0.00 0.33 0.33 99 1008.0
20260902232735 59 307 0.0 0.0 0.00 0.33 0.33 99 1008.1
20260902232235 59 287 0.0 0.9 0.00 0.33 0.33 99 1008.3
20260902231734 59 313 0.0 0.0 0.00 0.33 0.33 99 1007.9
20260902231230 59 301 0.0 0.9 0.07 0.33 0.33 99 1007.9
20260902230724 59 300 0.0 0.9 0.07 0.33 0.33 99 1007.9
20260902230223 59 307 0.0 0.9 0.00 0.32 0.32 99 1008.0
20260902225718 59 306 0.0 0.0 0.00 0.32 0.32 99 1007.8
20260902225218 59 310 0.0 0.0 0.00 0.32 0.32 99 1007.8
20260902224717 59 310 0.0 0.9 0.00 0.32 0.32 99 1007.8
20260902224212 59 302 0.0 0.9 0.00 0.32 0.32 99 1007.5
20260902223708 59 287 0.9 1.7 0.00 0.32 0.32 99 1007.6
20260902223208 59 303 0.0 0.0 0.00 0.32 0.32 99 1007.6
20260902222707 59 297 0.0 0.0 0.00 0.32 0.32 99 1007.6
20260902222201 59 227 0.9 1.7 0.00 0.32 0.32 99 1007.7
20260902221655 59 305 0.0 0.0 0.00 0.32 0.32 99 1007.8
20260902221154 59 313 0.0 0.0 0.00 0.32 0.32 99 1007.7
20260902220650 59 270 0.0 0.9 0.00 0.32 0.32 99 1007.8
20260902220145 59 135 1.7 4.3 0.00 0.32 0.32 99 1007.6
20260902215641 59 195 0.0 1.7 0.00 0.32 0.32 99 1007.6
20260902215136 59 318 0.0 0.0 0.00 0.32 0.32 99 1007.7
20260902214631 59 306 0.0 0.0 0.00 0.32 0.32 99 1007.6
20260902214130 59 322 0.0 0.0 0.00 0.32 0.32 99 1007.6
20260902213626 59 315 0.0 0.0 0.00 0.32 0.32 99 1007.7
20260902213125 59 298 0.0 0.0 0.00 0.32 0.32 99 1007.5
20260902212621 59 305 0.0 0.0 0.00 0.32 0.32 99 1007.7
20260902212117 59 284 0.0 0.9 0.00 0.32 0.32 99 1007.6
20260902211613 59 316 0.0 0.0 0.00 0.32 0.32 99 1007.5
20260902211108 59 319 0.0 0.0 0.00 0.32 0.32 99 1007.5
20260902210607 59 316 0.0 0.0 0.00 0.32 0.32 99 1007.4
20260902205601 59 298 0.0 0.0 0.00 0.32 0.32 99 1007.5
20260902205057 59 73 0.0 0.0 0.07 0.32 0.32 99 1007.5
20260902204556 59 307 0.0 0.0 0.07 0.32 0.32 99 1007.3
20260902204051 59 321 0.0 0.0 0.00 0.31 0.31 99 1007.6
20260902203547 59 308 0.0 0.0 0.00 0.31 0.31 99 1007.2
20260902203046 59 314 0.0 0.0 0.00 0.31 0.31 99 1007.2
20260902202542 59 324 0.0 0.0 0.05 0.31 0.31 99 1007.3
20260902202038 59 93 2.6 4.3 0.12 0.31 0.31 99 1007.1
20260902201534 59 319 0.0 0.0 0.07 0.30 0.30 99 1007.2
20260902201033 59 308 0.0 0.0 0.12 0.30 0.30 99 1007.2
20260902200528 59 332 0.0 0.9 0.17 0.29 0.29 99 1007.0
20260902200024 59 325 0.0 0.0 0.19 0.28 0.28 99 1007.5
20260902195520 59 330 0.0 0.0 0.12 0.26 0.26 99 1007.4
20260902195019 59 5 0.0 0.9 0.12 0.25 0.25 99 1007.4
20260902194518 59 302 0.0 0.0 0.12 0.24 0.24 99 1007.5
20260902194014 59 348 0.0 0.9 0.24 0.24 0.24 99 1007.8
20260902193510 59 339 0.0 0.0 0.26 0.22 0.22 99 1007.5
20260902193009 59 311 0.0 0.0 0.19 0.20 0.20 99 1008.0
20260902192508 59 311 0.0 0.0 0.17 0.18 0.18 99 1007.7
20260902192007 59 303 0.0 0.0 0.19 0.17 0.17 99 1007.9
20260902191502 59 305 0.0 0.0 0.12 0.16 0.16 99 1007.8
20260902190957 59 310 0.0 0.0 0.12 0.15 0.15 99 1007.8
20260902190452 59 318 0.0 0.0 0.12 0.14 0.14 99 1007.7
20260902185948 59 333 0.0 0.9 0.12 0.13 0.13 99 1007.5
20260902185444 59 318 0.0 0.0 0.07 0.11 0.11 99 1007.6
20260902184939 59 308 0.0 0.0 0.07 0.11 0.11 98 1007.5
20260902184434 59 327 0.0 0.0 0.00 0.10 0.10 98 1007.7
20260902183930 59 326 0.0 0.0 0.05 0.10 0.10 98 1007.9
20260902183426 59 336 0.0 0.0 0.05 0.10 0.10 98 1007.9
20260902182921 59 327 0.0 0.0 0.07 0.09 0.09 97 1008.1
20260902182418 59 328 0.0 0.0 0.07 0.09 0.09 97 1008.3
20260902181914 59 303 0.0 0.0 0.05 0.08 0.08 97 1008.3
20260902181409 59 309 0.0 0.0 0.05 0.08 0.08 96 1008.4
20260902180903 59 310 0.0 0.0 0.07 0.07 0.07 96 1008.4
20260902180358 59 304 0.0 0.0 0.14 0.07 0.07 95 1008.5
20260902175853 60 289 0.0 0.0 0.12 0.06 0.06 95 1008.4
20260902175349 60 288 0.0 0.0 0.05 0.05 0.05 94 1008.4
20260902174844 61 298 0.0 0.0 0.07 0.04 0.04 93 1008.4
20260902174342 61 295 0.0 0.0 0.05 0.03 0.03 90 1008.3
20260902173837 62 295 0.0 0.0 0.12 0.03 0.03 89 1008.3
20260902173336 62 295 0.0 0.0 0.12 0.02 0.02 85 1008.3
20260902172831 63 295 0.0 0.0 0.05 0.01 0.01 84 1008.2
20260902172331 64 295 0.0 0.0 0.00 0.00 0.00 84 1007.9
20260902171825 64 295 0.0 0.0 0.00 0.00 0.00 82 1008.0
20260902171320 64 295 0.0 0.0 0.00 0.00 0.00 81 1007.9
20260902170812 64 295 0.0 0.0 0.00 0.00 0.00 80 1007.8
20260902170307 65 295 0.0 0.0 0.00 0.00 0.00 78 1007.7
20260902165803 65 295 0.0 0.0 0.00 0.00 0.00 77 1007.8
20260902165308 65 296 0.0 0.0 0.00 0.00 0.00 74 1007.8
20260902164756 65 296 0.0 0.0 0.00 0.00 0.00 74 1007.6
20260902164251 65 296 0.0 0.0 0.00 0.00 0.00 74 1007.7
20260902163746 65 296 0.0 0.0 0.00 0.00 0.00 72 1007.8
20260902163245 65 295 0.0 0.0 0.00 0.00 0.00 71 1007.5
20260902162744 65 298 0.0 0.0 0.00 0.00 0.00 72 1007.6
20260902162239 65 299 0.0 0.0 0.00 0.00 0.00 71 1007.6
20260902161734 65 304 0.0 0.0 0.00 0.00 0.00 72 1007.4
20260902161229 65 307 0.0 0.0 0.00 0.00 0.00 73 1007.8
20260902160726 64 310 0.0 0.0 0.00 0.00 0.00 73 1007.6
20260902160220 64 312 0.0 0.0 0.00 0.00 0.00 74 1007.7
20260902155718 64 314 0.0 0.0 0.00 0.00 0.00 74 1007.6
20260902155217 64 308 0.0 0.9 0.00 0.00 0.00 75 1007.8
20260902154712 64 297 0.0 0.0 0.00 0.00 0.00 74 1008.1
20260902154207 64 298 0.0 0.0 0.00 0.00 0.00 76 1007.8
20260902153706 64 298 0.0 0.0 0.00 0.00 0.00 75 1007.9
20260902153201 63 303 0.0 0.0 0.00 0.00 0.00 76 1008.0
20260902152657 63 318 0.0 0.0 0.00 0.00 0.00 76 1007.9
20260902152152 63 312 0.0 0.0 0.00 0.00 0.00 77 1008.1
20260902151648 63 329 0.0 0.0 0.00 0.00 0.00 76 1008.0
20260902151142 63 322 0.0 0.0 0.00 0.00 0.00 76 1008.0
20260902150638 62 322 0.0 0.0 0.00 0.00 0.00 78 1008.2
20260902150133 62 326 0.0 0.0 0.00 0.00 0.00 79 1008.1
20260902145632 62 320 0.0 0.0 0.00 0.00 0.00 78 1008.2
20260902145132 62 321 0.0 0.0 0.00 0.00 0.00 77 1008.4
20260902144629 62 311 0.9 0.9 0.00 0.00 0.00 78 1008.5
20260902144124 62 304 0.0 0.0 0.00 0.00 0.00 78 1008.6
20260902143619 62 304 0.0 0.0 0.00 0.00 0.00 78 1008.4
20260902143115 61 297 0.0 0.0 0.00 0.00 0.00 78 1008.7
20260902142610 61 310 0.0 0.0 0.00 0.00 0.00 78 1008.5
20260902142106 61 308 0.0 0.0 0.00 0.00 0.00 78 1008.6
20260902141605 61 327 0.0 0.0 0.00 0.00 0.00 78 1008.7
20260902141101 60 337 0.0 0.0 0.00 0.00 0.00 79 1008.8
20260902140555 60 330 0.0 0.0 0.00 0.00 0.00 80 1008.6
20260902140051 60 307 0.0 0.0 0.00 0.00 0.00 82 1009.0
20260902135551 60 308 0.0 0.0 0.00 0.00 0.00 81 1008.8
20260902135051 60 298 0.0 0.0 0.00 0.00 0.00 82 1008.9
20260902134547 60 298 0.0 0.0 0.00 0.00 0.00 82 1009.0
20260902134047 60 298 0.0 0.0 0.00 0.00 0.00 82 1009.0
20260902133547 60 298 0.0 0.0 0.00 0.00 0.00 82 1009.2
20260902133041 60 298 0.0 0.0 0.00 0.00 0.00 82 1009.0
20260902132537 60 298 0.0 0.0 0.00 0.00 0.00 82 1009.3
20260902132032 60 298 0.0 0.0 0.00 0.00 0.00 82 1009.4
20260902131528 60 298 0.0 0.0 0.00 0.00 0.00 82 1009.4
20260902131028 60 298 0.0 0.0 0.00 0.00 0.00 82 1009.6
20260902130524 60 298 0.0 0.0 0.00 0.00 0.00 82 1009.6
20260902130019 60 298 0.0 0.0 0.00 0.00 0.00 82 1009.6
20260902125515 60 298 0.0 0.0 0.00 0.00 0.00 82 1009.7
20260902125010 60 298 0.0 0.0 0.00 0.00 0.00 83 1009.9
20260902124507 60 298 0.0 0.0 0.00 0.00 0.00 82 1009.9
20260902124002 60 298 0.0 0.0 0.00 0.00 0.00 82 1009.8
20260902123458 60 298 0.0 0.0 0.00 0.00 0.00 82 1010.1
20260902122956 60 298 0.0 0.0 0.00 0.00 0.00 83 1010.1
20260902122452 60 298 0.0 0.0 0.00 0.00 0.00 82 1010.4
20260902121947 60 298 0.0 0.0 0.00 0.00 0.00 82 1010.1
20260902121448 60 299 0.0 0.0 0.00 0.00 0.00 83 1010.2
20260902120942 60 298 0.0 0.0 0.00 0.00 0.00 83 1010.5
20260902120439 59 298 0.0 0.0 0.00 0.00 0.00 83 1010.6
20260902115938 59 299 0.0 0.0 0.00 0.00 0.00 84 1010.4
20260902115435 59 299 0.0 0.0 0.00 0.00 0.00 84 1010.4
20260902114931 59 299 0.0 0.0 0.00 0.00 0.00 85 1010.6
20260902114426 59 299 0.0 0.0 0.00 0.00 0.00 85 1010.7
20260902113921 59 299 0.0 0.0 0.00 0.00 0.00 85 1010.5
20260902113417 59 299 0.0 0.0 0.00 0.00 0.00 84 1010.8
20260902112916 59 298 0.0 0.0 0.00 0.00 0.00 84 1010.8
20260902112413 59 308 0.0 0.0 0.00 0.00 0.00 84 1010.8
20260902111908 59 308 0.0 0.0 0.00 0.00 0.00 84 1010.9
20260902111404 59 308 0.0 0.0 0.00 0.00 0.00 84 1011.0
20260902110900 59 308 0.0 0.0 0.00 0.00 0.00 84 1010.9
20260902110356 59 308 0.0 0.0 0.00 0.00 0.00 84 1010.8
20260902105855 59 308 0.0 0.0 0.00 0.00 0.00 84 1011.1
20260902105350 59 308 0.0 0.0 0.00 0.00 0.00 84 1010.9
20260902104846 59 308 0.0 0.0 0.00 0.00 0.00 84 1011.1
20260902104342 60 308 0.0 0.0 0.00 0.00 0.00 84 1011.0
20260902103841 60 308 0.0 0.0 0.00 0.00 0.00 83 1011.2
20260902103337 60 308 0.0 0.0 0.00 0.00 0.00 83 1011.1
20260902102832 60 308 0.0 0.0 0.00 0.00 0.00 83 1011.3
20260902102330 60 307 0.0 0.0 0.00 0.00 0.00 83 1011.2
20260902101825 60 307 0.0 0.0 0.00 0.00 0.00 83 1011.2
20260902101325 60 332 0.0 0.0 0.00 0.00 0.00 83 1011.2
20260902100824 60 328 0.0 0.0 0.00 0.00 0.00 83 1011.3
20260902100318 60 345 0.0 0.0 0.00 0.00 0.00 83 1011.3
20260902095813 60 313 0.0 0.0 0.00 0.00 0.00 83 1011.5
20260902095308 60 329 0.0 0.0 0.00 0.00 0.00 83 1011.5
20260902094802 60 241 1.7 2.6 0.00 0.00 0.00 83 1011.2
20260902094259 60 301 0.0 0.0 0.00 0.00 0.00 83 1011.5
20260902093758 60 332 0.0 0.0 0.00 0.00 0.00 83 1011.3
20260902093253 60 316 0.0 0.0 0.00 0.00 0.00 83 1011.5
20260902092752 60 313 0.9 0.9 0.00 0.00 0.00 84 1011.8
20260902092248 60 301 0.0 0.0 0.00 0.00 0.00 84 1011.7
20260902091747 60 300 0.9 0.9 0.00 0.00 0.00 84 1011.7
20260902091244 60 318 0.0 0.0 0.00 0.00 0.00 85 1011.9
20260902090740 60 322 0.9 0.9 0.00 0.00 0.00 86 1012.0
20260902090239 59 307 0.0 0.9 0.00 0.00 0.00 86 1011.9
20260902085733 59 329 0.0 0.0 0.00 0.00 0.00 86 1012.1
20260902085229 60 298 0.0 0.0 0.00 0.00 0.00 85 1012.1
20260902084724 60 298 0.0 0.0 0.00 0.00 0.00 85 1011.9
20260902084221 60 296 0.0 0.0 0.00 0.00 0.00 85 1012.1
20260902083720 60 298 0.0 0.0 0.00 0.00 0.00 85 1012.2
20260902083220 60 303 0.0 0.9 0.00 0.00 0.00 85 1012.1
20260902082716 60 299 0.0 0.9 0.00 0.00 0.00 85 1012.1
20260902082212 60 324 0.0 0.0 0.00 0.00 0.00 85 1012.1
20260902081708 60 298 0.0 0.9 0.00 0.00 0.00 86 1012.0
20260902081203 60 319 0.0 0.0 0.00 0.00 0.00 85 1012.0
20260902080658 60 318 0.0 0.0 0.00 0.00 0.00 85 1012.0
20260902080155 61 318 0.0 0.0 0.00 0.00 0.00 84 1011.9
20260902075655 61 313 0.0 0.9 0.00 0.00 0.00 83 1011.8
20260902075150 61 313 0.0 0.0 0.00 0.00 0.00 82 1011.9
20260902074645 62 313 0.0 0.0 0.00 0.00 0.00 82 1012.2
20260902074141 62 323 0.0 0.0 0.00 0.00 0.00 81 1012.0
20260902073636 62 323 0.0 0.0 0.00 0.00 0.00 81 1011.9
20260902073132 62 310 0.0 0.0 0.00 0.00 0.00 81 1012.1
20260902072628 62 303 0.0 0.0 0.00 0.00 0.00 80 1012.2
20260902072124 62 315 0.0 0.0 0.00 0.00 0.00 80 1012.4
20260902071619 62 311 0.0 0.0 0.00 0.00 0.00 80 1012.4
20260902071115 62 305 0.0 0.0 0.00 0.00 0.00 80 1012.3
20260902070610 62 267 0.9 0.9 0.00 0.00 0.00 79 1012.4
20260902070105 62 312 0.0 0.0 0.00 0.00 0.00 80 1012.4
20260902065558 62 244 0.9 0.9 0.00 0.00 0.00 79 1012.5
20260902065054 62 298 0.9 0.9 0.00 0.00 0.00 79 1012.6
20260902064550 62 308 0.0 0.9 0.00 0.00 0.00 79 1012.7
20260902064044 62 305 0.0 0.0 0.00 0.00 0.00 80 1012.3
20260902063539 62 302 0.0 0.9 0.00 0.00 0.00 80 1012.6
20260902063034 62 293 0.0 0.9 0.00 0.00 0.00 80 1012.6
20260902062533 62 294 0.0 0.9 0.00 0.00 0.00 80 1012.2
20260902062029 62 297 0.0 0.0 0.00 0.00 0.00 80 1012.6
20260902061528 62 318 0.0 0.0 0.00 0.00 0.00 79 1012.8
20260902061024 62 318 0.0 0.0 0.00 0.00 0.00 78 1012.5
20260902060520 63 322 0.0 0.0 0.00 0.00 0.00 77 1012.7
20260902060017 63 307 0.0 0.0 0.00 0.00 0.00 77 1012.5
20260902055512 63 306 0.0 0.0 0.00 0.00 0.00 77 1012.5
20260902055007 63 300 0.0 0.0 0.00 0.00 0.00 77 1012.5
20260902054508 63 326 0.0 0.9 0.00 0.00 0.00 77 1012.7
20260902054003 63 313 0.0 0.0 0.00 0.00 0.00 77 1012.7
20260902053458 63 307 0.0 0.0 0.00 0.00 0.00 77 1012.7
20260902052957 63 315 0.0 0.0 0.00 0.00 0.00 77 1012.7
20260902052452 63 311 0.0 0.0 0.00 0.00 0.00 77 1012.9
20260902051948 63 284 0.9 0.9 0.00 0.00 0.00 77 1012.9
20260902051442 63 325 0.9 0.9 0.00 0.00 0.00 77 1012.7
20260902050941 63 347 0.0 0.0 0.00 0.00 0.00 77 1012.9
20260902050441 63 309 0.0 0.0 0.00 0.00 0.00 78 1012.8
20260902045936 63 314 0.0 0.0 0.00 0.00 0.00 77 1012.6
20260902045432 63 313 0.0 0.0 0.00 0.00 0.00 77 1012.7
20260902044928 63 324 0.0 0.0 0.00 0.00 0.00 77 1012.9
20260902044423 63 316 0.0 0.0 0.00 0.00 0.00 77 1012.8
20260902043919 63 324 0.0 0.0 0.00 0.00 0.00 77 1012.7
20260902043414 64 312 0.0 0.0 0.00 0.00 0.00 77 1012.9
20260902042909 63 306 0.0 0.0 0.00 0.00 0.00 77 1012.8
20260902042408 64 326 0.0 0.0 0.00 0.00 0.00 77 1012.5
20260902041904 64 308 0.0 0.0 0.00 0.00 0.00 76 1012.7
20260902041403 64 314 0.0 0.0 0.00 0.00 0.00 76 1012.7
20260902040903 64 310 0.0 0.0 0.00 0.00 0.00 76 1012.7
20260902040358 64 350 0.0 0.0 0.00 0.00 0.00 76 1012.8
20260902035857 64 313 0.0 0.0 0.00 0.00 0.00 76 1012.8
20260902035352 64 313 0.0 0.0 0.00 0.00 0.00 76 1012.6
20260902034851 64 300 0.0 0.0 0.00 0.00 0.00 76 1012.5
20260902034346 64 322 0.0 0.0 0.00 0.00 0.00 76 1012.9
20260902033844 64 315 0.0 0.0 0.00 0.00 0.00 75 1012.5
20260902033339 64 314 0.0 0.0 0.00 0.00 0.00 75 1012.4
20260902032838 64 321 0.0 0.0 0.00 0.00 0.00 74 1012.5
20260902032339 64 309 0.0 0.0 0.00 0.00 0.00 74 1012.4
20260902031833 64 311 0.0 0.0 0.00 0.00 0.00 74 1012.8
20260902031330 65 315 0.0 0.9 0.00 0.00 0.00 74 1012.2
20260902030825 65 312 0.0 0.0 0.00 0.00 0.00 74 1012.6
20260902030319 65 198 0.9 1.7 0.00 0.00 0.00 73 1012.6
20260902025818 65 10 0.0 0.0 0.00 0.00 0.00 74 1012.4
20260902025314 65 359 0.0 0.0 0.00 0.00 0.00 73 1012.6
20260902024809 65 359 0.0 0.0 0.00 0.00 0.00 73 1012.4
20260902024304 65 16 0.0 0.9 0.00 0.00 0.00 72 1012.4
20260902023759 65 346 0.0 0.0 0.00 0.00 0.00 73 1012.4
20260902023255 65 1 0.0 0.0 0.00 0.00 0.00 73 1012.1
20260902022754 66 1 0.0 0.0 0.00 0.00 0.00 73 1012.3
20260902022250 66 337 0.0 0.0 0.00 0.00 0.00 72 1012.2
20260902021745 66 337 0.0 0.0 0.00 0.00 0.00 71 1012.2
20260902021245 66 339 0.0 0.0 0.00 0.00 0.00 71 1012.0
20260902020741 67 340 0.0 0.0 0.00 0.00 0.00 71 1012.0
20260902020237 67 345 0.0 0.0 0.00 0.00 0.00 70 1012.1
20260902015732 67 332 0.0 0.9 0.00 0.00 0.00 70 1012.3
20260902015229 67 351 0.0 0.0 0.00 0.00 0.00 70 1012.2
20260902014724 67 326 0.0 0.9 0.00 0.00 0.00 70 1012.0
20260902014220 67 327 0.0 0.9 0.00 0.00 0.00 70 1012.1
20260902013718 67 320 0.0 0.0 0.00 0.00 0.00 70 1012.2
20260902013214 67 319 0.0 0.0 0.00 0.00 0.00 70 1012.0
20260902012709 68 330 0.9 0.9 0.00 0.00 0.00 69 1012.0
20260902012205 68 328 0.9 0.9 0.00 0.00 0.00 68 1012.0
20260902011700 68 314 0.9 0.9 0.00 0.00 0.00 68 1012.1
20260902011155 68 308 0.9 1.7 0.00 0.00 0.00 67 1011.8
20260902010654 68 322 0.0 0.9 0.00 0.00 0.00 67 1012.3
20260902010150 68 319 0.0 0.0 0.00 0.00 0.00 67 1011.9
20260902005648 68 305 0.0 0.0 0.00 0.00 0.00 67 1011.8
20260902005144 68 314 0.0 0.0 0.00 0.00 0.00 67 1012.0
20260902004643 68 317 0.0 0.0 0.00 0.00 0.00 68 1011.8
20260902004138 68 306 0.9 1.7 0.00 0.00 0.00 67 1012.0
20260902003634 68 312 0.0 0.9 0.00 0.00 0.00 67 1011.8
20260902003129 69 308 1.7 2.6 0.00 0.00 0.00 66 1011.7
20260902002625 69 318 0.0 0.0 0.00 0.00 0.00 66 1011.7
20260902002119 69 314 0.9 0.9 0.00 0.00 0.00 64 1011.7
20260902001614 70 297 0.0 0.0 0.00 0.00 0.00 64 1011.7
20260902001109 70 329 1.7 1.7 0.00 0.00 0.00 64 1011.6
20260902000604 70 306 0.0 0.0 0.00 0.00 0.00 64 1011.9
20260902000100 70 298 0.9 0.9 0.00 0.00 0.00 64 1011.6
20260901235559 71 303 2.6 5.2 0.00 0.00 0.00 63 1011.8